This is the latest recevied weather packets stored in our database for station/object KC1HBM. If no packets are shown the sender has not sent any weather packets the latest 10 day(s).
| Time | Temp. | Humidity | Pressure | Rain* | Wind** | Luminosity | Snow |
|---|---|---|---|---|---|---|---|
| 1777868946 | 4.44° C | 73% | 1006.2 hPa | 0 mm | - | 0 W/m² | - |
| 1777868642 | 4.44° C | 73% | 1006.2 hPa | 0 mm | - | 0 W/m² | - |
| 1777868338 | 4.44° C | 74% | 1006.2 hPa | 0 mm | - | 0 W/m² | - |
| 1777868035 | 4.44° C | 73% | 1006.1 hPa | 0 mm | - | 0 W/m² | - |
| 1777867730 | 4.44° C | 73% | 1006.1 hPa | 0 mm | - | 0 W/m² | - |
| 1777867429 | 4.44° C | 72% | 1006 hPa | 0 mm | - | 0 W/m² | - |
| 1777867124 | 4.44° C | 72% | 1006.2 hPa | 0 mm | - | 0 W/m² | - |
| 1777866822 | 4.44° C | 74% | 1005.9 hPa | 0 mm | - | 0 W/m² | - |
| 1777866519 | 4.44° C | 74% | 1006.1 hPa | 0 mm | - | 0 W/m² | - |
| 1777866216 | 4.44° C | 73% | 1005.8 hPa | 0 mm | - | 0 W/m² | - |
| 1777865913 | 5° C | 76% | 1005.7 hPa | 0 mm | - | 0 W/m² | - |
| 1777865611 | 4.44° C | 74% | 1006 hPa | 0 mm | - | 0 W/m² | - |
| 1777865307 | 3.89° C | 74% | 1005.8 hPa | 0 mm | - | 0 W/m² | - |
| 1777865005 | 4.44° C | 77% | 1005.9 hPa | 0 mm | - | 0 W/m² | - |
| 1777864702 | 3.89° C | 76% | 1005.8 hPa | 0 mm | - | 0 W/m² | - |
| 1777864399 | 3.89° C | 78% | 1005.8 hPa | 0 mm | - | 0 W/m² | - |
| 1777864095 | 3.33° C | 81% | 1005.7 hPa | 0 mm | - | 0 W/m² | - |
| 1777863793 | 3.89° C | 84% | 1005.6 hPa | 0 mm | - | 0 W/m² | - |
| 1777863489 | 3.89° C | 84% | 1005.8 hPa | 0 mm | - | 0 W/m² | - |
| 1777863186 | 4.44° C | 85% | 1005.7 hPa | 0 mm | - | 0 W/m² | - |
| 1777862882 | 4.44° C | 83% | 1005.7 hPa | 0 mm | - | 0 W/m² | - |
| 1777862579 | 4.44° C | 81% | 1005.8 hPa | 0 mm | - | 0 W/m² | - |
| 1777862275 | 4.44° C | 80% | 1005.8 hPa | 0 mm | - | 0 W/m² | - |
| 1777861972 | 5° C | 80% | 1005.7 hPa | 0 mm | - | 0 W/m² | - |
| 1777861668 | 5° C | 80% | 1005.6 hPa | 0 mm | - | 0 W/m² | - |
* Rain latest hour (hover to see other rain measurements)
** Current wind speed in m/s (hover to see current wind gust speed)